Weather History for Walhalla, ND

Change the Weather History Date:

Saturday, February 8, 2014

  Actual Average (KGAF) Record (KGAF)
Temperature  
Mean Temperature -8 °F -  
Max Temperature 1 °F 19 °F 46 °F (1991)
Min Temperature -16 °F -2 °F -27 °F (1951)
Degree Days  
Heating Degree Days 72    
Moisture  
Dew Point -11 °F    
Average Humidity 80    
Maximum Humidity 92    
Minimum Humidity 66    
Precipitation  
Precipitation 0.00 in - - ()
Sea Level Pressure  
Sea Level Pressure 30.19 in    
Wind  
Wind Speed 3 mph (NW)    
Max Wind Speed 10 mph    
Max Gust Speed -    
Visibility 10 miles    
Events Snow    
Averages and records for this station are not official NWS values.
T = Trace of Precipitation, MM = Missing Value Source: NWS Daily Summary

Daily Weather History Graph

Daily Weather History Graph

Search for Another Location

Airport:

Trip Planner

Search our weather history database for the weather conditions in past years. The results will help you decide how hot, cold, wet, or windy it might be!

Date:

Astronomy

Feb. 08, 2014 Rise Set
Actual Time 7:51 AM CST 5:40 PM CST
Civil Twilight 7:18 AM CST 6:14 PM CST
Nautical Twilight 6:40 AM CST 6:51 PM CST
Astronomical Twilight 6:04 AM CST 7:28 PM CST
Moon 12:27 PM CST (2/8) 3:12 AM CST (2/8)
Length of Visible Light 10h 55m
Length of Day
9h 49m
Waxing Gibbous, 69% of the Moon is Illuminated
Feb 8
Waxing Gibbous
Feb 14
Full
Feb 22
Last Quarter
Mar 1
New
Mar 8
First Quarter

Hourly Weather History & Observations

Time (CST) Temp. Windchill Dew Point Humidity Pressure Visibility Wind Dir Wind Speed Gust Speed Precip Events Conditions
12:15 AM -13.0 °F - -18.4 °F 77% 30.06 in - Calm Calm - N/A   Overcast
12:35 AM -14.8 °F - -20.2 °F 77% 30.07 in - Calm Calm - N/A   Unknown
12:55 AM -16.6 °F -26.8 °F -20.2 °F 84% 30.07 in - SW 3.5 mph - N/A   Mostly Cloudy
1:15 AM -16.6 °F -26.8 °F -22.0 °F 76% 30.08 in - SW 3.5 mph - N/A   Overcast
1:35 AM -14.8 °F - -18.4 °F 84% 30.08 in - Calm Calm - N/A   Overcast
1:55 AM -14.8 °F - -20.2 °F 77% 30.08 in - Calm Calm - N/A   Overcast
2:15 AM -13.0 °F - -20.2 °F 70% 30.09 in - Calm Calm - N/A   Overcast
2:35 AM -13.0 °F - -20.2 °F 70% 30.09 in 10.0 mi Calm Calm - N/A   Overcast
2:55 AM -13.0 °F - -18.4 °F 77% 30.09 in - Calm Calm - N/A   Overcast
3:15 AM -13.0 °F - -18.4 °F 77% 30.10 in - Calm Calm - N/A   Overcast
3:35 AM -14.8 °F - -20.2 °F 77% 30.10 in 10.0 mi Calm Calm - N/A   Overcast
3:55 AM -14.8 °F - -20.2 °F 77% 30.10 in - Calm Calm - N/A   Overcast
4:15 AM -13.0 °F - -18.4 °F 77% 30.11 in - Calm Calm - N/A   Overcast
4:35 AM - - - N/A% 30.10 in - Calm Calm - N/A   Overcast
4:55 AM -11.2 °F - -16.6 °F 77% 30.11 in 10.0 mi Calm Calm - N/A Snow Light Snow
5:15 AM -11.2 °F - -16.6 °F 77% 30.11 in 10.0 mi Calm Calm - N/A Snow Light Snow
5:35 AM -11.2 °F - -16.6 °F 77% 30.11 in - Calm Calm - N/A   Overcast
5:55 AM -11.2 °F - -16.6 °F 77% 30.11 in 10.0 mi Calm Calm - N/A   Overcast
6:15 AM -11.2 °F -20.6 °F -16.6 °F 77% 30.11 in - NW 3.5 mph - N/A   Overcast
6:35 AM -9.4 °F -18.6 °F -14.8 °F 77% 30.12 in - NW 3.5 mph - N/A   Overcast
6:55 AM -7.6 °F -18.8 °F -11.2 °F 84% 30.12 in - NW 4.6 mph - N/A Snow Heavy Snow
7:15 AM -5.8 °F -14.5 °F -9.4 °F 84% 30.12 in 10.0 mi NW 3.5 mph - N/A Snow Light Snow
7:35 AM -5.8 °F -14.5 °F -9.4 °F 84% 30.13 in - WNW 3.5 mph - N/A Snow Heavy Snow
7:55 AM -5.8 °F -16.7 °F -9.4 °F 84% 30.13 in 7.0 mi NW 4.6 mph - N/A Snow Light Snow
8:15 AM -4.0 °F - -7.6 °F 85% 30.14 in - Calm Calm - N/A   Overcast
8:35 AM -4.0 °F - -7.6 °F 85% 30.14 in 10.0 mi Calm Calm - N/A   Overcast
8:55 AM -4.0 °F -12.4 °F -7.6 °F 85% 30.15 in 10.0 mi NW 3.5 mph - N/A   Overcast
9:15 AM -4.0 °F -12.4 °F -7.6 °F 85% 30.16 in 10.0 mi NNW 3.5 mph - N/A   Overcast
9:35 AM -4.0 °F -14.6 °F -7.6 °F 85% 30.16 in 10.0 mi NNW 4.6 mph - N/A   Overcast
9:55 AM -4.0 °F -12.4 °F -7.6 °F 85% 30.17 in 10.0 mi NNW 3.5 mph - N/A   Overcast
10:15 AM -2.2 °F -14.2 °F -7.6 °F 78% 30.18 in 10.0 mi NNW 5.8 mph - N/A   Scattered Clouds
10:35 AM -2.2 °F -15.6 °F -7.6 °F 78% 30.18 in 10.0 mi NW 6.9 mph - N/A   Mostly Cloudy
10:55 AM -2.2 °F -16.8 °F -5.8 °F 85% 30.19 in 10.0 mi NNW 8.1 mph - N/A   Overcast
11:15 AM -2.2 °F -16.8 °F -5.8 °F 85% 30.19 in 10.0 mi NNW 8.1 mph - N/A   Overcast
11:35 AM -2.2 °F -18.0 °F -5.8 °F 85% 30.20 in 10.0 mi NNW 9.2 mph - N/A   Overcast
11:55 AM -2.2 °F -18.9 °F -4.0 °F 92% 30.21 in 9.0 mi NNW 10.4 mph - N/A   Overcast
12:15 PM -0.4 °F -15.7 °F -4.0 °F 85% 30.21 in 4.0 mi North 9.2 mph - N/A Snow Light Snow
12:35 PM -0.4 °F -14.7 °F -5.8 °F 78% 30.21 in 5.0 mi NNW 8.1 mph - N/A   Haze
12:55 PM -0.4 °F -16.7 °F -5.8 °F 78% 30.21 in 5.0 mi North 10.4 mph - N/A Snow Light Snow
1:15 PM -0.4 °F -15.7 °F -5.8 °F 78% 30.21 in 7.0 mi North 9.2 mph - N/A Snow Light Snow
1:35 PM -0.4 °F -14.7 °F -5.8 °F 78% 30.22 in 9.0 mi North 8.1 mph - N/A   Overcast
1:55 PM -0.4 °F -14.7 °F -5.8 °F 78% 30.21 in 10.0 mi North 8.1 mph - N/A   Overcast
2:15 PM -0.4 °F -10.4 °F -4.0 °F 85% 30.21 in 10.0 mi NNW 4.6 mph - N/A   Mostly Cloudy
2:35 PM -0.4 °F -12.0 °F -4.0 °F 85% 30.21 in 10.0 mi NNW 5.8 mph - N/A   Mostly Cloudy
2:55 PM -0.4 °F -12.0 °F -4.0 °F 85% 30.22 in 10.0 mi NW 5.8 mph - N/A   Scattered Clouds
3:15 PM -0.4 °F -14.7 °F -4.0 °F 85% 30.22 in 10.0 mi NW 8.1 mph - N/A   Scattered Clouds
3:35 PM -0.4 °F -13.4 °F -4.0 °F 85% 30.23 in 10.0 mi NW 6.9 mph - N/A   Partly Cloudy
3:55 PM -0.4 °F -12.0 °F -5.8 °F 78% 30.23 in 10.0 mi NW 5.8 mph - N/A   Partly Cloudy
4:15 PM 1.4 °F -11.3 °F -5.8 °F 72% 30.23 in 10.0 mi NNW 6.9 mph - N/A   Partly Cloudy
4:35 PM -0.4 °F -12.0 °F -5.8 °F 78% 30.24 in 10.0 mi NNW 5.8 mph - N/A   Partly Cloudy
4:55 PM -0.4 °F -10.4 °F -7.6 °F 72% 30.25 in 10.0 mi NNW 4.6 mph - N/A   Mostly Cloudy
5:15 PM -0.4 °F -12.0 °F -7.6 °F 72% 30.25 in 10.0 mi North 5.8 mph - N/A   Scattered Clouds
5:35 PM -0.4 °F -10.4 °F -9.4 °F 66% 30.25 in 10.0 mi North 4.6 mph - N/A   Partly Cloudy
5:55 PM -4.0 °F -12.4 °F -9.4 °F 78% 30.26 in 10.0 mi NNW 3.5 mph - N/A   Mostly Cloudy
6:15 PM -5.8 °F -14.5 °F -11.2 °F 77% 30.26 in - NW 3.5 mph - N/A   Overcast
6:35 PM -5.8 °F -14.5 °F -11.2 °F 77% 30.26 in - NW 3.5 mph - N/A   Overcast
6:55 PM -4.0 °F -14.6 °F -9.4 °F 78% 30.27 in - NW 4.6 mph - N/A   Mostly Cloudy
7:15 PM -4.0 °F -14.6 °F -9.4 °F 78% 30.27 in 10.0 mi WNW 4.6 mph - N/A   Mostly Cloudy
7:35 PM -9.4 °F -18.6 °F -14.8 °F 77% 30.28 in - NW 3.5 mph - N/A   Mostly Cloudy
7:55 PM -7.6 °F -18.8 °F -13.0 °F 77% 30.28 in 10.0 mi NW 4.6 mph - N/A   Mostly Cloudy
8:15 PM -7.6 °F -18.8 °F -13.0 °F 77% 30.28 in 10.0 mi WNW 4.6 mph - N/A   Overcast
8:35 PM -5.8 °F -16.7 °F -11.2 °F 77% 30.29 in 10.0 mi NW 4.6 mph - N/A   Overcast
8:55 PM -7.6 °F - -13.0 °F 77% 30.29 in 10.0 mi Calm Calm - N/A   Overcast
9:15 PM -9.4 °F - -14.8 °F 77% 30.29 in 10.0 mi Calm Calm - N/A   Overcast
9:35 PM -9.4 °F - -13.0 °F 84% 30.29 in 10.0 mi Calm Calm - N/A   Overcast
9:55 PM -9.4 °F - -13.0 °F 84% 30.29 in 10.0 mi Calm Calm - N/A   Scattered Clouds
10:15 PM -9.4 °F - -13.0 °F 84% 30.30 in 10.0 mi Calm Calm - N/A   Clear
10:35 PM -7.6 °F -16.5 °F -13.0 °F 77% 30.30 in - West 3.5 mph - N/A   Mostly Cloudy
10:55 PM -11.2 °F -20.6 °F -14.8 °F 84% 30.30 in - West 3.5 mph - N/A   Unknown
11:15 PM -9.4 °F -20.9 °F -13.0 °F 84% 30.31 in - WNW 4.6 mph - N/A   Unknown
11:35 PM -7.6 °F -18.8 °F -11.2 °F 84% 30.31 in - WNW 4.6 mph - N/A   Overcast
11:55 PM -7.6 °F -18.8 °F - N/A% 30.31 in 10.0 mi NW 4.6 mph - N/A   Mostly Cloudy